SCP
0 0 0 0 0 0 0 0 0 0 0 -0 -0 -0 0 0 0 0 0 0 0 0 0 0 0 -0 -0 0 0 0 -0 -0 0 0 0 0 0 0 0 0 0 0 0 0
0 0 0 0 0 0 0 0 0 0 0 0 0 0 0 0 -0 0 0 0 0 0 0 -0 0 -0 -0 0 -0 -0 0 0 0 0 0 0 0 0 0 0 0 0 0 0
0 0 0 0 0 0 0 0 0 0 0 0 0 -0 0 0 0 0 0 0 -0 0 0 0 0 -0 0 -0 -0 -0 -0 0 0 0 0 0 0 0 0 0 0 0 0 0
0 0 0 0 0 0 0 0 0 0 0 0 0 0 0 0 0 0 -0 0 0 0 -0 -0 0 0 0 0 -0 0 0 0 0 0 0 0 0 0 0 0 0 0 0 0
0 0 0 0 0 0 0 0 0 0 0 0 0 0 0 0 0 0 0 0 0 0 -0 -0 -0 -0 0 -0 0 -0 -0 0 0 0 0 0 0 0 0 0 0 0 0 0
0 0 0 0 0 0 0 0 0 0 0 0 0 0 0 0 0 0 0 0 0 0 -0 -0 -0 0 -0 -0 -0 -0 -0 0 0 0 0 0 0 0 0 0 0 0 0 0
0 0 0 0 0 0 0 0 0 0 0 0 0 0 0 0 0 0 0 0 0 0 -0 -0 0 0 0 -0 -0 0 0 0 0 0 0 0 0 0 0 0 0 -0 -0 -0
0 0 0 0 -0 -0 0 0 0 0 0 0 0 0 0 0 0 0 0 0 0 0 -0 0 0 -0 0 -0 0 0 0 -0 0 0 0 0 -0 0 0 0 -0 -0 -0 0
0 0 0 0 0 0 0 0 0 0 0 0 0 0 0 0 0 0 0 0 0 0 0 0 -0 0 -0 0 0 0 0 0 0 0 0 0 -0 -0 -0 0 0 0 0 0
0 0 0 -0 0 0 0 0 0 0 0 0 0 0 0 0 0 0 0 0 0 0 0 0 -0 0 -0 0 0 0 -0 0 0 0 0 0 0 0 0 0 0 0 0 0
0 0 0 0 0 0 0 0 0 0 0 0 0 0 0 0 0 0 0 0 0 0 0 0 0 -0 0 0 0 0 0 0 0 0 0 0 0 0 0 0 0 0 0 0
0 0 0 0 0 0 0 0 0 0 0 0 0 0 0 0 0 0 0 0 0 0 0 0 0 -0 -0 0 0 0 0 0 0 0 0 0 0 0 -0 -0 -0 -0 -0 0
0 0 0 0 0 0 0 0 0 0 0 0 0 0 0 0 0 0 0 0 0 0 0 0 -0 0 0 0 0 0 0 0 0 0 0 0 0 0 -0 -0 -0 -0 -0 0
0 0 0 0 0 0 0 0 0 0 0 0 0 0 0 0 0 0 0 0 0 0 0 -0 0 0 0 0 0 0 0 0 0 0 0 0 0 0 0 0 0 0 0 0
0 0 0 0 0 0 0 0 0 0 0 0 0 0 0 0 0 0 0 0 0 0 0 0 0 0 0 0 0 0 0 0 -0 -0 -0 0 0 0 0 0 -0 0 0 0
0 0 0 0 0 0 0 0 0 0 0 0 0 0 0 0 0 0 0 0 0 0 0 -0 0 0 0 0 0 0 0 0 0 0 0 0 0 0 -0 0 0 0 0 0
0 0 0 0 0 0 0 0 0 0 0 0 0 0 0 0 0 0 0 0 0 0 0 0 0 0 0 0 0 0 0 0 0 0 0 0 0 0 0 0 0 0 0 0
0 0 0 0 0 0 0 -0 -0 0 0 0 0 0 0 0 0 0 -0 -0 -0 0 0 0 0 0 0 0 0 0 0 0 0 0 0 0 0 0 0 0 0 0 0 0
0 0 0 0 0 -0 -0 -0 0 0 0 0 0 0 0 0 0 -0 -0 -0 -0 -0 0 0 -0 0 0 0 0 0 0 0 0 0 0 0 0 0 0 0 0 0 0 0
0 0 0 0 0 -0 -0 -0 0 0 0 0 0 0 0 0 0 0 -0 -0 -0 -0 0 0 0 0 0 0 0 0 0 -0 0 0 0 0 0 0 0 0 0 0 0 0
0 0 0 0 0 -0 -0 0 0 0 0 0 0 0 0 0 0 0 -0 0 0 -0 -0 0 0 0 0 0 0 0 0 0 0 0 0 0 0 0 0 0 0 0 0 0
0 0 0 0 0 0 0 0 0 0 0 0 0 0 0 0 0 0 0 0 0 0 0 0 0 0 0 0 0 0 0 0 0 0 0 -0 0 0 0 -0 -0 0 0 0
0 0 0 0 0 0 0 0 0 0 0 0 0 0 0 0 0 0 0 0 0 0 0 0 0 0 0 0 0 0 0 0 0 0 0 0 0 0 -0 0 0 0 0 0
0 0 0 0 0 0 0 0 0 0 0 0 0 0 0 0 0 0 0 0 0 0 0 0 0 0 0 0 0 0 0 0 0 0 0 0 0 0 0 0 0 0 0 0
0 0 0 0 0 0 0 0 0 0 0 0 0 0 0 0 0 0 0 0 0 0 0 0 0 0 0 0 0 0 0 0 0 0 0 0 0 -0 0 0 0 0 0 0
0 0 0 0 0 0 0 0 0 0 0 0 0 0 0 0 0 0 0 0 0 0 0 0 0 0 0 0 0 0 0 0 0 0 0 0 0 0 0 0 0 0 0 0
0 -0 0 0 0 0 0 0 0 0 0 0 0 0 0 0 0 0 0 0 0 0 0 0 0 0 0 0 0 0 0 0 0 0 0 0 0 0 0 0 0 0 0 0
Wind_Speed_500mb
25 31 34 39 20 17 9 10 8 12 15 18 26 19 18 38 45 61 71 72 79 85 74 64 62 68 61 36 29 34 35 41 53 54 63 45 74 110 109 115 117 92 80 69
21 29 32 17 16 4 9 7 8 13 11 13 32 39 27 34 40 50 59 64 72 80 71 67 58 62 62 55 26 54 32 39 50 50 55 54 61 52 99 89 70 86 78 75
11 26 30 9 7 8 8 12 7 7 12 11 14 22 15 30 35 49 51 60 69 78 73 68 49 49 46 33 33 23 80 63 60 61 78 85 92 97 106 104 98 84 84 83
11 21 6 5 28 27 30 14 6 14 15 16 20 28 18 32 42 56 65 59 64 72 70 61 46 41 34 23 10 28 45 53 59 57 71 56 56 92 92 98 92 94 91 81
3 5 19 10 13 3 15 2 6 13 17 16 37 30 5 25 39 49 58 54 53 60 65 58 44 40 26 10 10 34 49 62 64 51 54 79 93 78 78 79 88 86 83 77
8 7 6 11 19 31 16 3 24 35 16 19 31 17 9 21 45 52 50 56 48 55 59 55 48 33 25 16 14 21 33 48 56 56 71 66 72 84 92 93 88 83 73 66
9 10 5 10 25 21 11 11 25 31 31 33 9 15 27 27 46 50 53 48 44 47 54 52 44 27 23 15 27 21 29 49 61 67 74 81 77 84 93 93 93 84 77 69
7 5 8 26 10 6 13 7 23 23 31 34 47 30 26 28 46 46 54 50 42 41 47 43 37 25 12 17 26 31 36 31 50 64 79 83 84 95 94 96 94 86 78 72
9 9 21 41 33 36 15 21 20 21 25 39 38 22 22 30 43 43 50 45 38 34 38 37 31 22 7 20 31 46 50 51 62 73 77 86 95 95 96 89 84 80 74 68
11 16 35 53 20 18 24 30 25 30 19 32 38 15 21 29 42 44 47 43 33 32 34 31 24 15 11 26 34 41 46 60 63 75 86 83 86 85 82 76 76 73 70 68
18 26 29 26 34 20 19 26 28 23 22 28 27 14 15 29 45 46 43 39 30 28 32 24 17 13 17 34 50 59 60 65 70 74 86 90 82 76 74 69 70 72 68 65
12 27 20 32 38 38 38 31 37 18 17 20 17 13 13 28 39 44 40 32 28 30 28 21 17 21 27 39 50 60 69 72 83 95 94 88 87 78 63 64 60 57 61 59
25 47 48 36 29 35 31 30 34 20 17 18 9 11 17 25 28 41 31 28 29 27 28 20 21 28 39 53 55 60 73 89 94 90 87 86 83 85 85 62 56 51 53 58
58 32 36 39 42 41 45 40 35 33 14 18 10 6 12 17 22 28 25 21 21 23 21 17 27 40 44 53 61 74 89 91 90 88 82 82 82 78 77 72 76 74 68 68
20 22 32 34 33 38 38 47 49 31 27 11 10 7 7 10 22 19 17 13 18 21 20 18 30 45 48 51 62 75 76 80 83 80 78 72 72 71 77 84 86 85 76 65
25 23 24 30 34 42 49 44 48 51 24 21 20 13 5 10 19 16 14 10 14 19 21 26 35 46 53 62 72 70 66 68 68 71 68 65 74 83 86 85 83 78 72 65
17 18 21 27 36 47 51 50 49 46 26 25 23 18 7 4 13 15 10 6 7 15 20 28 37 39 43 50 56 65 70 70 68 63 66 75 81 82 83 81 77 69 59 50
4 15 21 27 35 45 54 51 51 55 28 23 24 19 12 1 8 9 6 6 13 20 22 29 40 43 42 52 61 64 64 57 55 64 72 76 81 81 76 69 63 61 54 41
25 27 32 37 42 46 55 49 48 29 22 27 29 27 23 7 6 6 8 9 15 22 32 34 43 51 60 69 67 61 48 47 55 71 75 71 61 61 64 67 62 54 48 47
41 38 41 48 43 44 53 43 35 23 22 33 38 37 27 20 12 10 15 13 16 21 36 44 49 59 75 73 56 40 43 60 68 70 56 57 57 58 63 58 52 49 46 46
36 37 36 41 48 48 45 28 18 27 25 34 50 39 24 20 15 12 16 23 23 27 38 52 61 73 78 62 59 58 44 55 61 50 50 47 57 70 57 55 50 47 45 44
26 27 31 34 31 34 27 22 22 25 27 28 34 24 27 26 20 17 15 14 30 36 47 58 65 75 73 65 45 44 50 55 45 49 47 71 60 58 57 50 46 47 44 40
28 27 25 25 23 18 17 24 26 29 29 34 35 30 25 25 17 23 29 26 30 40 49 61 72 77 75 58 59 57 55 47 44 44 63 56 58 53 49 49 49 44 42 40
25 21 22 17 19 14 14 28 30 29 32 34 30 21 20 26 24 16 17 30 33 42 50 62 77 78 59 68 74 50 33 57 47 56 51 52 57 57 53 51 50 46 41 37
17 10 11 3 3 6 12 7 2 16 21 22 28 27 21 18 19 30 24 30 35 40 50 62 75 82 66 68 55 53 58 52 48 51 56 60 59 54 49 44 41 36 33 37
11 5 11 10 7 9 7 4 7 17 22 28 22 20 22 21 23 24 32 34 42 47 59 71 71 73 71 70 68 42 48 54 49 58 57 55 51 45 41 38 37 36 39 38
14 3 8 9 10 9 5 13 10 19 20 30 33 28 25 26 26 34 39 41 48 55 66 72 70 63 58 76 42 43 55 53 52 50 46 47 40 37 37 36 41 40 36 38
Wind_Direction_500mb
292 302 303 306 340 38 60 310 241 328 347 2 337 327 13 356 348 348 344 346 344 346 351 350 0 357 5 334 271 267 285 284 233 218 211 187 160 164 169 169 173 166 170 176
301 292 291 307 328 350 254 304 20 346 330 341 319 350 12 359 345 346 342 343 345 347 348 349 351 353 3 359 304 283 256 236 199 195 160 167 184 193 169 156 167 161 164 165
280 305 324 291 200 272 54 82 18 349 282 302 343 352 16 349 348 347 344 341 348 352 348 349 358 355 359 1 347 132 157 160 157 160 152 162 163 170 153 161 160 157 158 157
277 313 317 70 25 19 352 87 356 305 299 322 1 351 12 2 353 353 351 345 345 349 348 347 354 354 352 347 333 131 152 168 162 172 164 149 153 156 149 151 149 152 150 147
259 327 276 35 5 7 276 246 306 321 332 18 355 342 339 349 356 355 351 347 343 347 348 348 349 357 358 5 122 152 139 146 149 144 132 155 149 146 146 147 144 142 142 140
300 283 276 19 315 341 304 174 346 333 335 7 355 357 315 4 351 349 356 349 343 347 348 354 352 346 360 64 106 123 148 141 148 153 146 151 147 144 143 141 141 143 131 127
271 271 160 248 30 349 33 265 334 26 3 354 334 313 348 350 344 347 356 354 348 353 352 355 352 343 7 67 96 109 133 138 139 156 159 155 146 141 140 143 139 134 128 124
290 302 315 353 46 20 250 303 346 10 356 340 335 338 1 352 350 349 351 357 1 358 353 0 356 347 5 64 108 125 122 133 130 136 141 144 152 145 141 138 134 129 125 119
197 228 326 345 322 324 31 12 11 349 341 336 339 356 10 358 354 351 350 356 358 354 354 360 6 2 79 102 127 136 129 136 139 139 140 140 144 145 137 134 129 127 126 127
351 341 316 307 3 15 5 343 330 344 345 344 341 22 20 353 354 351 350 352 357 351 1 5 19 30 105 127 143 138 126 133 138 135 140 141 135 132 131 129 128 129 130 131
300 293 308 349 329 342 339 331 326 319 333 335 340 40 23 355 355 349 350 355 2 1 3 12 28 69 117 137 142 134 135 137 141 139 133 132 127 126 129 133 135 138 136 134
272 321 317 312 323 330 324 308 312 288 317 338 351 22 3 4 356 354 353 1 7 5 13 34 64 102 134 147 142 144 139 139 138 134 131 127 126 122 118 123 131 131 129 130
303 292 296 308 337 347 326 330 324 305 300 299 319 321 345 4 7 353 359 10 11 6 20 62 100 119 140 146 149 148 143 140 136 132 130 130 128 127 125 125 124 127 127 123
301 331 5 358 342 325 322 315 316 293 286 290 269 314 335 10 15 2 8 18 26 24 29 89 116 125 141 154 154 147 140 140 138 135 133 131 129 131 134 134 129 124 124 122
310 315 332 338 339 341 340 354 341 299 293 260 222 212 275 25 14 22 24 34 46 58 70 119 123 122 127 141 144 141 133 131 132 132 131 132 135 136 133 130 126 123 122 118
304 317 326 342 347 328 324 327 336 327 301 231 182 188 233 18 30 38 40 48 42 71 91 132 130 135 137 139 140 139 139 141 139 135 132 135 136 133 130 127 124 122 120 119
352 322 345 341 334 323 320 313 308 308 313 201 192 192 206 25 61 46 45 59 71 89 108 133 139 152 152 147 144 135 134 136 129 126 137 138 136 132 129 126 123 121 122 129
338 325 324 323 319 312 304 303 308 309 266 217 196 186 194 174 80 58 71 114 128 124 127 145 148 151 152 146 135 126 118 115 130 140 138 135 131 128 129 127 126 125 129 133
339 331 320 305 295 299 301 297 311 287 251 213 207 185 181 151 114 104 131 147 150 141 139 150 150 147 142 136 119 119 123 140 140 138 135 131 133 134 131 129 129 131 131 128
314 299 285 284 289 295 293 278 301 265 225 205 174 180 178 157 158 149 155 153 166 152 145 149 151 148 138 125 123 128 143 141 136 134 140 144 142 140 138 131 132 133 132 129
306 299 300 294 285 271 274 284 263 231 197 180 178 179 170 154 169 177 157 160 163 163 153 151 154 150 140 131 132 133 143 141 140 146 145 143 137 131 132 140 141 136 131 128
311 314 311 313 310 292 274 244 224 210 199 180 170 177 164 162 169 179 155 167 165 166 160 158 158 152 147 133 136 147 146 144 143 148 141 136 131 138 144 144 140 136 132 130
311 305 307 322 328 298 195 198 187 168 164 172 188 187 185 179 195 181 163 162 171 170 168 165 162 156 148 141 149 141 142 148 149 140 140 135 145 147 145 142 140 137 136 136
326 303 291 296 331 1 88 146 158 162 158 159 185 201 204 187 173 173 161 160 171 173 174 166 164 157 152 155 144 139 142 153 144 142 143 152 150 147 145 145 145 148 147 143
307 333 338 272 349 302 274 19 145 151 158 148 188 189 196 198 197 172 173 165 171 172 169 168 169 168 153 151 151 142 137 141 152 153 156 153 153 154 155 155 154 152 147 147
8 20 8 14 269 260 225 234 168 171 170 178 185 190 187 168 167 171 164 166 165 167 168 168 169 168 166 161 155 135 152 152 160 159 159 161 162 161 160 159 159 160 151 144
336 352 18 330 335 331 272 204 171 175 180 191 181 176 172 169 167 161 160 163 160 162 166 171 172 172 168 154 147 153 159 162 166 165 169 162 164 168 166 165 160 151 145 141
Wind_Speed_850mb
25 31 34 39 20 17 9 10 8 12 15 18 26 19 18 38 45 61 71 72 79 85 74 64 62 68 61 36 29 34 35 41 53 54 63 45 74 110 109 115 117 92 80 69
21 29 32 17 16 4 9 7 8 13 11 13 32 39 27 34 40 50 59 64 72 80 71 67 58 62 62 55 26 54 32 39 50 50 55 54 61 52 99 89 70 86 78 75
11 26 30 9 7 8 8 12 7 7 12 11 14 22 15 30 35 49 51 60 69 78 73 68 49 49 46 33 33 23 80 63 60 61 78 85 92 97 106 104 98 84 84 83
11 21 6 5 28 27 30 14 6 14 15 16 20 28 18 32 42 56 65 59 64 72 70 61 46 41 34 23 10 28 45 53 59 57 71 56 56 92 92 98 92 94 91 81
3 5 19 10 13 3 15 2 6 13 17 16 37 30 5 25 39 49 58 54 53 60 65 58 44 40 26 10 10 34 49 62 64 51 54 79 93 78 78 79 88 86 83 77
8 7 6 11 19 31 16 3 24 35 16 19 31 17 9 21 45 52 50 56 48 55 59 55 48 33 25 16 14 21 33 48 56 56 71 66 72 84 92 93 88 83 73 66
9 10 5 10 25 21 11 11 25 31 31 33 9 15 27 27 46 50 53 48 44 47 54 52 44 27 23 15 27 21 29 49 61 67 74 81 77 84 93 93 93 84 77 69
7 5 8 26 10 6 13 7 23 23 31 34 47 30 26 28 46 46 54 50 42 41 47 43 37 25 12 17 26 31 36 31 50 64 79 83 84 95 94 96 94 86 78 72
9 9 21 41 33 36 15 21 20 21 25 39 38 22 22 30 43 43 50 45 38 34 38 37 31 22 7 20 31 46 50 51 62 73 77 86 95 95 96 89 84 80 74 68
11 16 35 53 20 18 24 30 25 30 19 32 38 15 21 29 42 44 47 43 33 32 34 31 24 15 11 26 34 41 46 60 63 75 86 83 86 85 82 76 76 73 70 68
18 26 29 26 34 20 19 26 28 23 22 28 27 14 15 29 45 46 43 39 30 28 32 24 17 13 17 34 50 59 60 65 70 74 86 90 82 76 74 69 70 72 68 65
12 27 20 32 38 38 38 31 37 18 17 20 17 13 13 28 39 44 40 32 28 30 28 21 17 21 27 39 50 60 69 72 83 95 94 88 87 78 63 64 60 57 61 59
25 47 48 36 29 35 31 30 34 20 17 18 9 11 17 25 28 41 31 28 29 27 28 20 21 28 39 53 55 60 73 89 94 90 87 86 83 85 85 62 56 51 53 58
58 32 36 39 42 41 45 40 35 33 14 18 10 6 12 17 22 28 25 21 21 23 21 17 27 40 44 53 61 74 89 91 90 88 82 82 82 78 77 72 76 74 68 68
20 22 32 34 33 38 38 47 49 31 27 11 10 7 7 10 22 19 17 13 18 21 20 18 30 45 48 51 62 75 76 80 83 80 78 72 72 71 77 84 86 85 76 65
25 23 24 30 34 42 49 44 48 51 24 21 20 13 5 10 19 16 14 10 14 19 21 26 35 46 53 62 72 70 66 68 68 71 68 65 74 83 86 85 83 78 72 65
17 18 21 27 36 47 51 50 49 46 26 25 23 18 7 4 13 15 10 6 7 15 20 28 37 39 43 50 56 65 70 70 68 63 66 75 81 82 83 81 77 69 59 50
4 15 21 27 35 45 54 51 51 55 28 23 24 19 12 1 8 9 6 6 13 20 22 29 40 43 42 52 61 64 64 57 55 64 72 76 81 81 76 69 63 61 54 41
25 27 32 37 42 46 55 49 48 29 22 27 29 27 23 7 6 6 8 9 15 22 32 34 43 51 60 69 67 61 48 47 55 71 75 71 61 61 64 67 62 54 48 47
41 38 41 48 43 44 53 43 35 23 22 33 38 37 27 20 12 10 15 13 16 21 36 44 49 59 75 73 56 40 43 60 68 70 56 57 57 58 63 58 52 49 46 46
36 37 36 41 48 48 45 28 18 27 25 34 50 39 24 20 15 12 16 23 23 27 38 52 61 73 78 62 59 58 44 55 61 50 50 47 57 70 57 55 50 47 45 44
26 27 31 34 31 34 27 22 22 25 27 28 34 24 27 26 20 17 15 14 30 36 47 58 65 75 73 65 45 44 50 55 45 49 47 71 60 58 57 50 46 47 44 40
28 27 25 25 23 18 17 24 26 29 29 34 35 30 25 25 17 23 29 26 30 40 49 61 72 77 75 58 59 57 55 47 44 44 63 56 58 53 49 49 49 44 42 40
25 21 22 17 19 14 14 28 30 29 32 34 30 21 20 26 24 16 17 30 33 42 50 62 77 78 59 68 74 50 33 57 47 56 51 52 57 57 53 51 50 46 41 37
17 10 11 3 3 6 12 7 2 16 21 22 28 27 21 18 19 30 24 30 35 40 50 62 75 82 66 68 55 53 58 52 48 51 56 60 59 54 49 44 41 36 33 37
11 5 11 10 7 9 7 4 7 17 22 28 22 20 22 21 23 24 32 34 42 47 59 71 71 73 71 70 68 42 48 54 49 58 57 55 51 45 41 38 37 36 39 38
14 3 8 9 10 9 5 13 10 19 20 30 33 28 25 26 26 34 39 41 48 55 66 72 70 63 58 76 42 43 55 53 52 50 46 47 40 37 37 36 41 40 36 38
Wind_Direction_850mb
292 302 303 306 340 38 60 310 241 328 347 2 337 327 13 356 348 348 344 346 344 346 351 350 0 357 5 334 271 267 285 284 233 218 211 187 160 164 169 169 173 166 170 176
301 292 291 307 328 350 254 304 20 346 330 341 319 350 12 359 345 346 342 343 345 347 348 349 351 353 3 359 304 283 256 236 199 195 160 167 184 193 169 156 167 161 164 165
280 305 324 291 200 272 54 82 18 349 282 302 343 352 16 349 348 347 344 341 348 352 348 349 358 355 359 1 347 132 157 160 157 160 152 162 163 170 153 161 160 157 158 157
277 313 317 70 25 19 352 87 356 305 299 322 1 351 12 2 353 353 351 345 345 349 348 347 354 354 352 347 333 131 152 168 162 172 164 149 153 156 149 151 149 152 150 147
259 327 276 35 5 7 276 246 306 321 332 18 355 342 339 349 356 355 351 347 343 347 348 348 349 357 358 5 122 152 139 146 149 144 132 155 149 146 146 147 144 142 142 140
300 283 276 19 315 341 304 174 346 333 335 7 355 357 315 4 351 349 356 349 343 347 348 354 352 346 360 64 106 123 148 141 148 153 146 151 147 144 143 141 141 143 131 127
271 271 160 248 30 349 33 265 334 26 3 354 334 313 348 350 344 347 356 354 348 353 352 355 352 343 7 67 96 109 133 138 139 156 159 155 146 141 140 143 139 134 128 124
290 302 315 353 46 20 250 303 346 10 356 340 335 338 1 352 350 349 351 357 1 358 353 0 356 347 5 64 108 125 122 133 130 136 141 144 152 145 141 138 134 129 125 119
197 228 326 345 322 324 31 12 11 349 341 336 339 356 10 358 354 351 350 356 358 354 354 360 6 2 79 102 127 136 129 136 139 139 140 140 144 145 137 134 129 127 126 127
351 341 316 307 3 15 5 343 330 344 345 344 341 22 20 353 354 351 350 352 357 351 1 5 19 30 105 127 143 138 126 133 138 135 140 141 135 132 131 129 128 129 130 131
300 293 308 349 329 342 339 331 326 319 333 335 340 40 23 355 355 349 350 355 2 1 3 12 28 69 117 137 142 134 135 137 141 139 133 132 127 126 129 133 135 138 136 134
272 321 317 312 323 330 324 308 312 288 317 338 351 22 3 4 356 354 353 1 7 5 13 34 64 102 134 147 142 144 139 139 138 134 131 127 126 122 118 123 131 131 129 130
303 292 296 308 337 347 326 330 324 305 300 299 319 321 345 4 7 353 359 10 11 6 20 62 100 119 140 146 149 148 143 140 136 132 130 130 128 127 125 125 124 127 127 123
301 331 5 358 342 325 322 315 316 293 286 290 269 314 335 10 15 2 8 18 26 24 29 89 116 125 141 154 154 147 140 140 138 135 133 131 129 131 134 134 129 124 124 122
310 315 332 338 339 341 340 354 341 299 293 260 222 212 275 25 14 22 24 34 46 58 70 119 123 122 127 141 144 141 133 131 132 132 131 132 135 136 133 130 126 123 122 118
304 317 326 342 347 328 324 327 336 327 301 231 182 188 233 18 30 38 40 48 42 71 91 132 130 135 137 139 140 139 139 141 139 135 132 135 136 133 130 127 124 122 120 119
352 322 345 341 334 323 320 313 308 308 313 201 192 192 206 25 61 46 45 59 71 89 108 133 139 152 152 147 144 135 134 136 129 126 137 138 136 132 129 126 123 121 122 129
338 325 324 323 319 312 304 303 308 309 266 217 196 186 194 174 80 58 71 114 128 124 127 145 148 151 152 146 135 126 118 115 130 140 138 135 131 128 129 127 126 125 129 133
339 331 320 305 295 299 301 297 311 287 251 213 207 185 181 151 114 104 131 147 150 141 139 150 150 147 142 136 119 119 123 140 140 138 135 131 133 134 131 129 129 131 131 128
314 299 285 284 289 295 293 278 301 265 225 205 174 180 178 157 158 149 155 153 166 152 145 149 151 148 138 125 123 128 143 141 136 134 140 144 142 140 138 131 132 133 132 129
306 299 300 294 285 271 274 284 263 231 197 180 178 179 170 154 169 177 157 160 163 163 153 151 154 150 140 131 132 133 143 141 140 146 145 143 137 131 132 140 141 136 131 128
311 314 311 313 310 292 274 244 224 210 199 180 170 177 164 162 169 179 155 167 165 166 160 158 158 152 147 133 136 147 146 144 143 148 141 136 131 138 144 144 140 136 132 130
311 305 307 322 328 298 195 198 187 168 164 172 188 187 185 179 195 181 163 162 171 170 168 165 162 156 148 141 149 141 142 148 149 140 140 135 145 147 145 142 140 137 136 136
326 303 291 296 331 1 88 146 158 162 158 159 185 201 204 187 173 173 161 160 171 173 174 166 164 157 152 155 144 139 142 153 144 142 143 152 150 147 145 145 145 148 147 143
307 333 338 272 349 302 274 19 145 151 158 148 188 189 196 198 197 172 173 165 171 172 169 168 169 168 153 151 151 142 137 141 152 153 156 153 153 154 155 155 154 152 147 147
8 20 8 14 269 260 225 234 168 171 170 178 185 190 187 168 167 171 164 166 165 167 168 168 169 168 166 161 155 135 152 152 160 159 159 161 162 161 160 159 159 160 151 144
336 352 18 330 335 331 272 204 171 175 180 191 181 176 172 169 167 161 160 163 160 162 166 171 172 172 168 154 147 153 159 162 166 165 169 162 164 168 166 165 160 151 145 141